{"data":{"norad_id":53664,"intl_designator":"2022-105S","name":"STARLINK-4471","alt_names":[],"object_type":"PAYLOAD","status":"ACTIVE","operator":null,"country":"US","launch_date":"2022-08-31","launch_site_code":"AFWTR","launch_vehicle":null,"mission":null,"orbit_class":"UNKNOWN","rcs_meters":null,"size_class":null,"mass_kg":null,"dimensions":null,"purposes":["comms"],"wikipedia_slug":null,"has_3d_model":false,"image_url":null,"decayed_at":null,"tle_current":{"epoch":"2026-05-25T05:14:30.471072Z","epoch_age_seconds":59322,"freshness":"FRESH","line1":"1 53664U 22105S   26145.21840823  .00023959  00000+0  16642-2 0  9998","line2":"2 53664  97.4491  26.2306 0001791 117.2534 242.8876 15.05533529204810","mean_motion":15.05533529,"eccentricity":0.0001791,"inclination_deg":97.4491,"raan_deg":26.2306,"arg_perigee_deg":117.2534,"mean_anomaly_deg":242.8876,"bstar":0.0016642,"rev_number":20481,"period_min":95.647155793101,"perigee_km":548.6276345421,"apogee_km":551.10924609082,"semimajor_km":6928.0054403165,"source":"CELESTRAK","updated_at":"2026-05-25T13:38:17.487497Z"}}}